Location: Ernez
(36.4595°N, 29.8755°E)
Time: 09:11:49
(UTC+00:00)

Cosmos 1869 - Pass Details

Date: 13 November 2025
Orbit: 453 x 482 km, 82.5° (Epoch: 04 December)

Event Time Altitude Azimuth Distance (km) Brightness Sun altitude
Rises 15:55:08 0° 181° (S) 2,506 6.9 -12.7°
Reaches altitude 10° 15:57:14 10° 178° (S) 1,627 5.9 -13.1°
Maximum altitude 16:00:46 69° 96° (E) 504 2.9 -13.8°
Drops below altitude 10° 16:04:17 10° 12° (NNE) 1,621 5.5 -14.5°
Enters shadow 16:05:43 - 10° (N) 2,221 6.2 -14.7°
